STARLINK-11455, 62463

Orbit data source: Space-Track

STARLINK-11455, 62463 is a payload satellite owned by SpaceX/Seattle (US) in LEO that was launched on Tue, 31 Dec 2024 UTC via an FALCON 9 launch vehicle from the Air Force Eastern Test Range (AFETR). Payload-class satellites include a variety of spacecraft equipped with specific instruments for various scientific and technological missions. These include communications satellites like Starlink; space stations such as the ISS; scientific satellites like the Hubble; Earth observation satellites from companies like Planet Labs, Umbra, and HawkEye 360; GPS; miniature CubeSats for education and research; and military/defense satellites.

Loading next visibility...
Identifier
62463, 2024-254B
Orbit
LEO
Country
Flag of USUS
Related business
Manufacturer
SpaceX/Seattle
Mission
Operational Commercial Communications
Bus & Motor
STARLINK V2M, Unknown motor
Mass
730 kg wet, ~700 kg dry
Launch date (UTC)
2024-12-31 (8 months ago)
Launch vehicle
FALCON 9
Launch site
Air Force Eastern Test Range (AFETR)
Object type
Payload
Rocket body
Debris
Shape & HBR
Box + 2 Pan, 14.5 m
Radar Cross Section
36.964 m², Large (>1 m²)

Expand to show TLE details & history
Last TLE update: 21 hours ago

TLE from 21 hours ago
0 STARLINK-11455
1 62463U 24254B   25242.16201047  .00244269  00000-0  18398-2 0  9992
2 62463  42.9995 297.9206 0003643 298.5235  61.5266 15.70990583 39270
Epoch: 2025-08-30T03:53Z
TLE epoch observation values (Epoch: 2025-08-30T03:53:17.704Z)
Latitude
-0°
Longitude
-99.00344°
Altitude
354.667 km
Speed
7.699 km/s
True Right ascension
19h 51m 40s
True Declination
0° 00' 00"
Sunlit
Object was in full shadow at epoch
Visualization orbit readout
Latitude
Unknown
Longitude
Unknown
Altitude
Unknown
Speed
Unknown
Apparent Right ascension
Unknown
Apparent Declination
Unknown
Sunlit
N/A
Visualization observer readout
Local Sidereal Time
16:22:51
Azimuth
Unknown
Elevation
Unknown
Doppler factor
Unknown
Orbital elements
Apogee altitude
360.5 km
Perigee altitude
355.593 km
Semi-major axis
6,736.183 km
Eccentricity
0.00036
Inclination
42.9995°
RAAN
297.9206°
Arg. of periapsis
298.5235°
True anomaly
61.5633°
Mean anomaly
61.5266°
Eccentric anomaly
61.54495°
Mean motion
3.92575 °/min
Orbital period
91.7 mins
BSTAR
0.0018398
Loading maneuver chart data...
Computing Atmospheric mass density...
Loading historical data...
Loading historical data...
Loading historical data...
Loading historical data...
Loading historical data...
Loading historical data...
Loading historical data...

Documentation

Showing up to 5 results
|